When you browse on this site, cookies collect data to enhance your experience and personalize the content and advertising you see.
Visit our Privacy Policy to learn more. By continuing to use the site, you agree to this use of cookies and data.
  • In Switzerland
  • List of Countries
  • For 7 days
  • Water Temperature
  • Satellite Maps
  • Weather Map
  • Weather Widgets
  • user-avatar
    Login

    Hourly Weather Plaskivshchyna

    Today, 17 July, Wednesday

    Time Temperature Precipitation Wind Pressure Humidity
    00:00 +16°C° 0 mm 2 mps 745 mmHg 87%
    01:00 +15°C° 0 mm 2 mps 745 mmHg 86%
    02:00 +15°C° 0 mm 1 mps 745 mmHg 86%
    03:00 +15°C° 0 mm 1 mps 745 mmHg 86%
    04:00 +15°C° 0 mm 1 mps 745 mmHg 86%
    05:00 +15°C° 0 mm 1 mps 745 mmHg 86%
    06:00 +17°C° 0 mm 2 mps 745 mmHg 80%
    07:00 +19°C° 0 mm 2 mps 745 mmHg 74%
    08:00 +21°C° 0 mm 2 mps 745 mmHg 68%
    09:00 +21°C° 0.5 mm 3 mps 745 mmHg 66%
    10:00 +22°C° 0.5 mm 4 mps 745 mmHg 63%
    11:00 +23°C° 0.5 mm 5 mps 745 mmHg 61%
    12:00 +23°C° 0.4 mm 4 mps 745 mmHg 60%
    13:00 +23°C° 0.4 mm 4 mps 745 mmHg 60%
    14:00 +23°C° 0.4 mm 4 mps 745 mmHg 59%
    15:00 +22°C° 0 mm 4 mps 745 mmHg 59%
    16:00 +22°C° 0 mm 4 mps 745 mmHg 59%
    17:00 +22°C° 0 mm 3 mps 745 mmHg 59%
    18:00 +20°C° 0 mm 3 mps 745 mmHg 64%
    19:00 +19°C° 0 mm 2 mps 745 mmHg 70%
    20:00 +17°C° 0 mm 2 mps 745 mmHg 75%
    21:00 +17°C° 0.2 mm 2 mps 745 mmHg 78%
    22:00 +16°C° 0.2 mm 2 mps 745 mmHg 81%
    23:00 +16°C° 0.2 mm 2 mps 745 mmHg 84%

    Tomorrow, 18 July, Thursday

    Time Temperature Precipitation Wind Pressure Humidity
    00:00 +15°C° 0.1 mm 2 mps 745 mmHg 86%
    01:00 +14°C° 0.1 mm 2 mps 745 mmHg 89%
    02:00 +14°C° 0.1 mm 2 mps 745 mmHg 91%
    03:00 +14°C° 0 mm 2 mps 745 mmHg 92%
    04:00 +14°C° 0 mm 2 mps 745 mmHg 93%
    05:00 +13°C° 0 mm 2 mps 745 mmHg 94%
    06:00 +14°C° 0 mm 3 mps 746 mmHg 87%
    07:00 +16°C° 0 mm 3 mps 746 mmHg 80%
    08:00 +18°C° 0 mm 4 mps 746 mmHg 74%
    09:00 +19°C° 0 mm 4 mps 746 mmHg 68%
    10:00 +20°C° 0 mm 4 mps 746 mmHg 62%
    11:00 +22°C° 0 mm 4 mps 746 mmHg 57%
    12:00 +22°C° 0 mm 4 mps 746 mmHg 56%
    13:00 +23°C° 0 mm 5 mps 746 mmHg 55%
    14:00 +23°C° 0 mm 5 mps 746 mmHg 54%
    15:00 +23°C° 0.1 mm 5 mps 747 mmHg 57%
    16:00 +22°C° 0.1 mm 5 mps 747 mmHg 60%
    17:00 +22°C° 0.1 mm 5 mps 747 mmHg 62%
    18:00 +21°C° 0.1 mm 4 mps 747 mmHg 69%
    19:00 +19°C° 0.1 mm 3 mps 747 mmHg 76%
    20:00 +17°C° 0.1 mm 2 mps 748 mmHg 83%
    21:00 +17°C° 0 mm 2 mps 748 mmHg 86%
    22:00 +16°C° 0 mm 2 mps 748 mmHg 88%
    23:00 +15°C° 0 mm 2 mps 749 mmHg 91%

    Day after tomorrow, 19 July, Friday

    Time Temperature Precipitation Wind Pressure Humidity
    00:00 +15°C° 0 mm 2 mps 749 mmHg 92%
    01:00 +14°C° 0 mm 3 mps 749 mmHg 93%
    02:00 +13°C° 0 mm 3 mps 749 mmHg 93%
    03:00 +13°C° 0 mm 3 mps 749 mmHg 94%
    04:00 +13°C° 0 mm 3 mps 749 mmHg 94%
    05:00 +13°C° 0 mm 3 mps 749 mmHg 94%
    06:00 +16°C° 0 mm 3 mps 750 mmHg 88%
    07:00 +18°C° 0 mm 4 mps 750 mmHg 82%
    08:00 +20°C° 0 mm 4 mps 750 mmHg 76%
    09:00 +21°C° 0 mm 4 mps 750 mmHg 71%
    10:00 +22°C° 0 mm 4 mps 750 mmHg 66%
    11:00 +23°C° 0 mm 4 mps 750 mmHg 62%
    12:00 +25°C° 0.3 mm 4 mps 750 mmHg 61%
    13:00 +25°C° 0.3 mm 5 mps 750 mmHg 61%
    14:00 +26°C° 0.3 mm 5 mps 750 mmHg 60%
    15:00 +25°C° 0.4 mm 4 mps 750 mmHg 61%
    16:00 +25°C° 0.4 mm 4 mps 751 mmHg 62%
    17:00 +25°C° 0.4 mm 4 mps 751 mmHg 63%
    18:00 +22°C° 0 mm 3 mps 751 mmHg 68%
    19:00 +21°C° 0 mm 3 mps 751 mmHg 73%
    20:00 +19°C° 0 mm 2 mps 751 mmHg 78%
    21:00 +18°C° 0 mm 2 mps 752 mmHg 79%
    22:00 +18°C° 0 mm 2 mps 752 mmHg 81%
    23:00 +17°C° 0 mm 2 mps 752 mmHg 83%

    20 July, Saturday

    Time Temperature Precipitation Wind Pressure Humidity
    00:00 +17°C° 0 mm 2 mps 752 mmHg 84%
    01:00 +16°C° 0 mm 2 mps 752 mmHg 85%
    02:00 +16°C° 0 mm 1 mps 752 mmHg 86%
    03:00 +16°C° 0 mm 1 mps 753 mmHg 86%
    04:00 +16°C° 0 mm 2 mps 753 mmHg 86%
    05:00 +16°C° 0 mm 2 mps 753 mmHg 86%
    06:00 +18°C° 0 mm 2 mps 753 mmHg 79%
    07:00 +20°C° 0 mm 2 mps 753 mmHg 73%
    08:00 +23°C° 0 mm 2 mps 753 mmHg 67%
    09:00 +24°C° 0 mm 2 mps 754 mmHg 62%
    10:00 +26°C° 0 mm 3 mps 754 mmHg 57%
    11:00 +27°C° 0 mm 3 mps 754 mmHg 52%
    12:00 +27°C° 0 mm 3 mps 754 mmHg 50%
    13:00 +27°C° 0 mm 3 mps 754 mmHg 49%
    14:00 +28°C° 0 mm 3 mps 754 mmHg 47%
    15:00 +27°C° 0 mm 3 mps 753 mmHg 52%
    16:00 +27°C° 0 mm 3 mps 753 mmHg 56%
    17:00 +26°C° 0 mm 2 mps 753 mmHg 61%
    18:00 +25°C° 0 mm 2 mps 753 mmHg 65%
    19:00 +23°C° 0 mm 1 mps 753 mmHg 70%
    20:00 +21°C° 0 mm 1 mps 754 mmHg 75%
    21:00 +21°C° 0.1 mm 1 mps 754 mmHg 77%
    22:00 +18°C° 0.1 mm 0 mps 754 mmHg 78%
    23:00 +18°C° 0.1 mm 0 mps 754 mmHg 80%

    21 July, Sunday

    Time Temperature Precipitation Wind Pressure Humidity
    00:00 +19°C° 0.2 mm 1 mps 754 mmHg 82%
    01:00 +19°C° 0.2 mm 1 mps 754 mmHg 84%
    02:00 +19°C° 0.2 mm 1 mps 754 mmHg 86%
    03:00 +19°C° 0 mm 1 mps 754 mmHg 86%
    04:00 +19°C° 0 mm 1 mps 754 mmHg 87%
    05:00 +19°C° 0 mm 1 mps 754 mmHg 87%
    06:00 +21°C° 0 mm 1 mps 754 mmHg 81%
    07:00 +22°C° 0 mm 1 mps 754 mmHg 75%
    08:00 +24°C° 0 mm 1 mps 754 mmHg 69%
    09:00 +25°C° 0 mm 1 mps 754 mmHg 65%
    10:00 +27°C° 0 mm 1 mps 754 mmHg 60%
    11:00 +28°C° 0 mm 1 mps 754 mmHg 55%
    12:00 +28°C° 0.7 mm 1 mps 754 mmHg 54%
    13:00 +29°C° 0.7 mm 1 mps 753 mmHg 53%
    14:00 +29°C° 0.7 mm 2 mps 753 mmHg 51%
    15:00 +29°C° 0.1 mm 2 mps 753 mmHg 52%
    16:00 +29°C° 0.1 mm 1 mps 753 mmHg 53%
    17:00 +29°C° 0.1 mm 1 mps 753 mmHg 54%
    18:00 +27°C° 0 mm 1 mps 753 mmHg 58%
    19:00 +25°C° 0 mm 2 mps 754 mmHg 62%
    20:00 +24°C° 0 mm 2 mps 754 mmHg 66%
    21:00 +23°C° 0 mm 2 mps 754 mmHg 68%
    22:00 +22°C° 0 mm 1 mps 754 mmHg 69%
    23:00 +22°C° 0 mm 1 mps 754 mmHg 70%

    22 July, Monday

    Time Temperature Precipitation Wind Pressure Humidity
    00:00 +21°C° 0 mm 1 mps 754 mmHg 72%
    01:00 +21°C° 0 mm 1 mps 754 mmHg 74%
    02:00 +20°C° 0 mm 1 mps 754 mmHg 76%
    03:00 +20°C° 0 mm 1 mps 754 mmHg 77%
    04:00 +20°C° 0 mm 1 mps 754 mmHg 78%
    05:00 +20°C° 0 mm 1 mps 754 mmHg 79%
    06:00 +22°C° 0 mm 1 mps 754 mmHg 74%
    07:00 +24°C° 0 mm 1 mps 754 mmHg 69%
    08:00 +26°C° 0 mm 1 mps 754 mmHg 65%
    09:00 +26°C° 0.4 mm 1 mps 754 mmHg 62%
    10:00 +27°C° 0.4 mm 1 mps 754 mmHg 58%
    11:00 +28°C° 0.4 mm 1 mps 754 mmHg 55%
    12:00 +28°C° 0.3 mm 1 mps 753 mmHg 58%
    13:00 +28°C° 0.3 mm 1 mps 753 mmHg 61%
    14:00 +27°C° 0.3 mm 1 mps 753 mmHg 64%
    15:00 +27°C° 0.6 mm 1 mps 753 mmHg 64%
    16:00 +28°C° 0.6 mm 1 mps 752 mmHg 65%
    17:00 +28°C° 0.6 mm 2 mps 752 mmHg 65%
    18:00 +26°C° 1.4 mm 2 mps 752 mmHg 71%
    19:00 +25°C° 1.4 mm 2 mps 752 mmHg 78%
    20:00 +22°C° 1.4 mm 3 mps 752 mmHg 84%
    21:00 +21°C° 6.4 mm 3 mps 752 mmHg 88%
    22:00 +21°C° 6.4 mm 3 mps 752 mmHg 92%
    23:00 +20°C° 6.4 mm 3 mps 751 mmHg 95%
    Show more